Weather History for KBKE - October, 2011

Change the Weather History Date:

Sunday, October 23, 2011

  Actual Average Record
Temperature  
Mean Temperature 48 °F 42 °F  
Max Temperature 67 °F 57 °F 73 °F (1948)
Min Temperature 28 °F 27 °F 17 °F (1955)
Degree Days  
Heating Degree Days 17 23  
Month to date heating degree days 369 439  
Since 1 July heating degree days 653 881  
Cooling Degree Days 0 0  
Month to date cooling degree days 0 0  
Year to date cooling degree days 83 169  
Moisture  
Dew Point 35 °F    
Average Humidity 71    
Maximum Humidity 100    
Minimum Humidity 42    
Precipitation  
Precipitation T in 0.02 in 0.26 in (1970)
Month to date precipitation 0.96 0.43  
Year to date precipitation 9.99 8.05  
Sea Level Pressure  
Sea Level Pressure 30.17 in    
Wind  
Wind Speed 4 mph (SSE)    
Max Wind Speed 12 mph    
Max Gust Speed 15 mph    
Visibility 5 miles    
Events Fog    
T = Trace of Precipitation, MM = Missing Value Source: NWS Daily Summary

Daily Weather History Graph

Daily Weather History Graph

Search for Another Location

Airport or City:

Trip Planner

Search our weather history database for the weather conditions in past years. The results will help you decide how hot, cold, wet, or windy it might be!

Date:

Astronomy

Oct. 23, 2011 Rise Set
Actual Time 7:16 AM PDT 5:53 PM PDT
Civil Twilight 6:47 AM PDT 6:23 PM PDT
Nautical Twilight 6:12 AM PDT 6:57 PM PDT
Astronomical Twilight 5:39 AM PDT 7:31 PM PDT
Moon 3:21 AM PDT (10/23) 3:53 PM PDT (10/23)
Length of Visible Light 11h 36m
Length of Day
10h 36m
Waning Crescent, 13% of the Moon is Illuminated
Oct 23
Waning Crescent
Oct 26
New
Nov 2
First Quarter
Nov 10
Full
Nov 18
Last Quarter

Hourly Weather History & Observations

Time (PDT) Temp. Windchill Dew Point Humidity Pressure Visibility Wind Dir Wind Speed Gust Speed Precip Events Conditions
12:53 AM 33.1 °F - 32.0 °F 96% 30.24 in 9.0 mi Calm Calm - N/A   Clear
1:53 AM 36.0 °F 32.1 °F 35.1 °F 97% 30.23 in 10.0 mi SE 4.6 mph - N/A   Clear
2:53 AM 32.0 °F - 30.9 °F 96% 30.23 in 2.0 mi Calm Calm - N/A   Clear
2:57 AM 33.8 °F - 32.0 °F 93% 30.22 in 0.8 mi Calm Calm - N/A   Clear
3:13 AM 32.0 °F - 30.2 °F 93% 30.21 in 2.5 mi Calm Calm - N/A   Clear
3:20 AM 30.2 °F - 30.2 °F 100% 30.21 in 6.0 mi Calm Calm - N/A   Clear
3:26 AM 30.2 °F 24.3 °F 30.2 °F 100% 30.21 in 0.8 mi North 5.8 mph - N/A   Mist
3:37 AM 33.8 °F - 32.0 °F 93% 30.21 in 0.2 mi Calm Calm - N/A Fog Fog
3:44 AM 32.0 °F - 32.0 °F 100% 30.21 in 0.8 mi Calm Calm - N/A   Mist
3:48 AM 32.0 °F - 32.0 °F 100% 30.21 in 1.2 mi Calm Calm - N/A   Scattered Clouds
3:53 AM 30.9 °F - 30.9 °F 100% 30.22 in 3.0 mi Calm Calm - N/A   Partly Cloudy
4:22 AM 30.2 °F - 28.4 °F 93% 30.21 in 3.0 mi Calm Calm - N/A   Mostly Cloudy
4:40 AM 30.2 °F - 30.2 °F 100% 30.21 in 1.2 mi Calm Calm - N/A   Overcast
4:46 AM 30.2 °F 26.7 °F 30.2 °F 100% 30.21 in 0.2 mi SW 3.5 mph - N/A Fog Light Freezing Fog
4:53 AM 30.9 °F 26.2 °F 30.0 °F 96% 30.23 in 0.2 mi SW 4.6 mph - N/A Fog Light Freezing Fog
5:53 AM 30.0 °F - 28.9 °F 96% 30.24 in 0.2 mi Calm Calm - 0.00 in Fog Light Freezing Fog
6:13 AM 28.4 °F - 28.4 °F 100% 30.20 in 0.5 mi Calm Calm - N/A Fog Light Freezing Fog
6:35 AM 30.2 °F - 28.4 °F 93% 30.20 in 0.2 mi Calm Calm - N/A Fog Light Freezing Fog
6:53 AM 30.0 °F 26.5 °F 28.0 °F 92% 30.24 in 0.5 mi NE 3.5 mph - N/A Fog Light Freezing Fog
7:18 AM 28.4 °F - 28.4 °F 100% 30.20 in 0.2 mi Calm Calm - N/A Fog Light Freezing Fog
7:48 AM 28.4 °F - 28.4 °F 100% 30.21 in 1.0 mi Calm Calm - N/A   Mist
7:53 AM 30.0 °F - 28.0 °F 92% 30.26 in 0.8 mi Calm Calm - N/A   Mist
8:13 AM 30.2 °F - 30.2 °F 100% 30.21 in 1.2 mi Calm Calm - N/A   Scattered Clouds
8:19 AM 30.2 °F - 30.2 °F 100% 30.21 in 3.0 mi Calm Calm - N/A   Scattered Clouds
8:53 AM 35.6 °F - 35.6 °F 100% 30.22 in 9.0 mi Calm Calm - N/A   Clear
9:53 AM 44.6 °F - 39.2 °F 81% 30.22 in 10.0 mi Calm Calm - N/A   Clear
10:53 AM 53.1 °F - 43.0 °F 69% 30.22 in 10.0 mi SSE 3.5 mph - N/A   Clear
11:53 AM 57.9 °F - 43.0 °F 58% 30.17 in 10.0 mi Calm Calm - N/A   Clear
12:53 PM 64.0 °F - 44.1 °F 48% 30.14 in 10.0 mi NE 9.2 mph - N/A   Clear
1:53 PM 64.9 °F - 42.1 °F 43% 30.10 in 10.0 mi NE 8.1 mph - N/A   Clear
2:53 PM 66.0 °F - 44.1 °F 45% 30.08 in 10.0 mi NNE 9.2 mph - N/A   Clear
3:53 PM 66.0 °F - 43.0 °F 43% 30.06 in 10.0 mi NE 6.9 mph - N/A   Clear
4:53 PM 64.4 °F - 44.6 °F 49% 30.04 in 10.0 mi North 5.8 mph - N/A   Clear
5:53 PM 55.9 °F - 42.1 °F 60% 30.06 in 10.0 mi West 5.8 mph - N/A   Clear
6:53 PM 50.0 °F - 42.8 °F 76% 30.03 in 10.0 mi SSW 4.6 mph - N/A   Clear
7:53 PM 45.0 °F 42.6 °F 39.9 °F 82% 30.08 in 9.0 mi SW 4.6 mph - N/A   Clear
8:53 PM 43.0 °F - 39.0 °F 86% 30.07 in 10.0 mi Calm Calm - N/A   Clear
9:53 PM 39.2 °F 37.0 °F 37.4 °F 93% 30.02 in 10.0 mi South 3.5 mph - N/A   Clear
10:53 PM 41.0 °F 38.0 °F 37.9 °F 89% 30.03 in 10.0 mi SW 4.6 mph - N/A   Clear
11:53 PM 42.1 °F 39.2 °F 39.9 °F 92% 30.01 in 10.0 mi SSE 4.6 mph - N/A   Overcast